Flag for Russia Weather past 2 weeks in Yakutsk, Russia

-27 °F

Light snow. Passing clouds.

Feels Like: -27 °F
Forecast: -34 / -23 °F
Wind: 1 mph from North

Location: Jakutsk

Current Time: Nov 29, 2015 at 2:41:25 AM

Latest Report: Nov 29, 2015 at 2:00 AM

Visibility: N/A

Pressure: 30.15 "Hg

Humidity: 67%

Dew point: -35 °F

Location of YakutskLocation

Historic Weather in Yakutsk — Graph


Yakutsk temperature yesterday

Maximum temperature yesterday: -27 °F (at 12:30 PM)
Minimum temperature yesterday: -35 °F (at 12:00 AM)
Average temperature yesterday: -30 °F

Past Weeks' High & Low Weather Summary

High1 °F (Nov 14, 5:00 AM)92% (Nov 14, 7:30 AM)30.74 "Hg (Nov 14, 7:30 AM)
Low-35 °F (Nov 27, 11:30 PM)66% (Nov 25, 6:00 AM)30.12 "Hg (Nov 16, 11:30 AM)
Average-20 °F75%30.43 "Hg
* Reported Nov 14 1:00 AM — Nov 29 1:30 AM, Yakutsk, Weather by CustomWeather, © 2015

Note: Actual official high and low records may vary slightly from our data, if they occured in-between our weather recording intervals... More about our weather records


Yakutsk weather history for previous 24 hours

Time TempWeatherWind HumidityBarometerVisibility
1:30 AM
Sun, Nov 29
-29 °FLight snow. Passing clouds.1 mph74%30.18 "HgN/A
1:00 AM-29 °FLight snow. Passing clouds.1 mph74%30.18 "HgN/A
12:30 AM-29 °FLight snow. Passing clouds.1 mph74%30.18 "HgN/A
12:00 AM-29 °FLight snow. Passing clouds.1 mph74%30.18 "HgN/A
11:30 PM
Sat, Nov 28
-27 °FPassing clouds.1 mph67%30.18 "HgN/A
11:00 PM-27 °FPassing clouds.1 mph67%30.18 "HgN/A
10:30 PM-27 °FPassing clouds.3 mph67%30.21 "HgN/A
10:00 PM-27 °FPassing clouds.3 mph67%30.21 "HgN/A
9:30 PM-27 °FPassing clouds.3 mph67%30.21 "HgN/A
9:00 PM-27 °FPassing clouds.1 mph67%30.21 "HgN/A
8:30 PM-27 °FPassing clouds.1 mph67%30.21 "HgN/A
8:00 PM-27 °FPassing clouds.1 mph67%30.21 "HgN/A
7:30 PM-27 °FPassing clouds.1 mph67%30.21 "HgN/A
7:00 PM-27 °FPassing clouds.1 mph67%30.21 "HgN/A
6:30 PM-27 °FPassing clouds.1 mph74%30.21 "HgN/A
6:00 PM-27 °FPassing clouds.1 mph67%30.24 "HgN/A
5:30 PM-27 °FPassing clouds.1 mph67%30.24 "HgN/A
5:00 PM-27 °FIce fog.1 mph67%30.24 "Hg3 mi
4:30 PM-27 °FIce fog.3 mph74%30.24 "Hg3 mi
4:00 PM-27 °FIce fog.1 mph67%30.24 "Hg3 mi
3:30 PM-27 °FIce fog.1 mph74%30.24 "Hg3 mi
3:00 PM-27 °FIce fog.1 mph74%30.24 "Hg3 mi
2:30 PM-27 °FIce fog.1 mph74%30.24 "Hg3 mi
1:30 PM-27 °FPartly sunny.3 mph74%30.24 "HgN/A
1:00 PM-27 °FPartly sunny.3 mph74%30.24 "HgN/A
12:30 PM-27 °FIce fog.3 mph67%30.24 "Hg3 mi
12:00 PM-29 °FIce fog.1 mph74%30.27 "Hg3 mi
11:30 AM-29 °FIce fog.1 mph67%30.27 "Hg3 mi
11:00 AM-31 °FIce fog.1 mph74%30.27 "Hg3 mi
10:30 AM-31 °FIce fog.1 mph67%30.27 "Hg3 mi
10:00 AM-31 °FIce fog.1 mph67%30.27 "Hg3 mi
9:30 AM-33 °FIce fog.1 mph74%30.27 "Hg2 mi
9:00 AM-33 °FIce fog.1 mph74%30.30 "Hg2 mi
8:30 AM-31 °FIce fog.1 mph67%30.30 "Hg2 mi
8:00 AM-31 °FLight snow. Ice fog.1 mph67%30.27 "Hg3 mi
7:30 AM-31 °FLight snow. Ice fog.1 mph67%30.27 "Hg3 mi
7:00 AM-31 °FLight snow. Ice fog.1 mph74%30.27 "Hg3 mi
6:30 AM-31 °FLight snow. Ice fog.1 mph67%30.27 "Hg3 mi
6:00 AM-33 °FLight snow. Ice fog.No wind74%30.27 "Hg3 mi
5:30 AM-33 °FIce fog.No wind74%30.27 "Hg3 mi
5:00 AM-33 °FIce fog.No wind66%30.27 "Hg3 mi
4:30 AM-35 °FIce fog.1 mph66%30.27 "Hg3 mi
4:00 AM-35 °FExtremely cold.No wind66%30.27 "Hg3 mi
3:30 AM-35 °FExtremely cold.1 mph66%30.27 "Hg2 mi
3:00 AM-35 °FIce fog.No wind66%30.27 "Hg2 mi
2:30 AM-35 °FIce fog.1 mph66%30.27 "Hg2 mi
2:00 AM-35 °FIce fog.1 mph66%30.27 "Hg3 mi
Weather by CustomWeather, © 2015

See weather overviewHow to use our weather pages